Regional Weather Roundup
Issued by NWS

Home | Current Version | Previous Version | Graphics & Text | Print | Product List | Glossary On
Versions: 1 2 3 4 5 6 7 8 9 10 11 12 13 14 15 16 17 18 19 20 21 22 23 24 25 26 27
000
ASUS45 KTFX 222310
RWRMT
MONTANA REGIONAL WEATHER ROUNDUP
NATIONAL WEATHER SERVICE GREAT FALLS MT
400 PM MST SUN JAN 22 2017

NOTE: "FAIR" INDICATES FEW OR NO CLOUDS BELOW 12000 FEET WITH NO
SIGNIFICANT WEATHER AND/OR OBSTRUCTIONS TO VISIBILITY.

MTZ001>007-043-230000-
WEST OF THE DIVIDE

CITY           SKY/WX    TMP DP  RH WIND       PRES   REMARKS
KALISPELL      PTCLDY    31  24  75 W3        29.62F
MISSOULA       CLOUDY    25  21  85 SE5       29.66R
BUTTE          CLOUDY    30  17  58 S8        29.65S WCI  22
MULLAN PASS    CLOUDY    24  21  88 SE8       29.52F WCI  15
ANACONDA         N/A     32  18  55 SE10      29.64F WCI  24
DEER LODGE       N/A     34  19  55 S7        29.66F WCI  28
EUREKA           N/A     30  25  80 CALM      29.67F
HAMILTON         N/A     28  25  86 NE5       29.66
PLAINS           N/A     29  23  78 E6        29.68F WCI  23
RONAN            N/A     26  24  92 CALM      29.72R VSB 0
$$

MTZ008-052>055-230000-
SOUTHWEST MONTANA

CITY           SKY/WX    TMP DP  RH WIND       PRES   REMARKS
BOZEMAN        CLOUDY    27  18  69 CALM      29.69F
DILLON         CLOUDY   N/A N/A N/A CALM      29.67S
W YELLOWSTONE  MIX PCPN  27  23  86 SW10      29.74R WCI  17
ENNIS          PTSUNNY   30  23  74 S20       29.73R WCI  18
TWIN BRIDGES     N/A     27  16  63 E3        29.71F
$$

MTZ009-010-012-014-046-048-049-054-230000-
EAST SLOPES AND CENTRAL MONTANA

CITY           SKY/WX    TMP DP  RH WIND       PRES   REMARKS
CUT BANK       FOG       24  24 100 NE12      29.72F VSB 1/4 WCI  13
GREAT FALLS    CLEAR     28  23  81 NE14      29.71F WCI  17
MALMSTROM AFB  MOCLDY    27  26  96 NE12      29.73S WCI  16
HELENA         CLEAR     23  15  71 CALM      29.69F
AUGUSTA        FRZ RAIN  24  24 100 NE14      29.67F VSB 1/8 WCI  11
BOWMANS CRNR     N/A     30  22  73 E9        29.65F WCI  21
CHOTEAU        FOG       25  25 100 NE9       29.73S VSB 0   WCI  15
CONRAD           N/A     24  24 100 NW1       29.78S VSB 0
POWER          FOG       24  24  98 NE8       29.71S VSB 1/4 WCI  15
RAYNESFORD       N/A     36  23  57 E8        29.69F WCI  30
ULM              N/A     33  28  80 MISG      29.68F
$$

MTZ011-013-016-021-045-047-050-051-230000-
NORTH CENTRAL MONTANA

CITY           SKY/WX    TMP DP  RH WIND       PRES   REMARKS
HAVRE          CLOUDY    29  27  92 CALM      29.80F
LEWISTOWN      CLEAR     34  24  67 E9        29.71F WCI  27
CHINOOK          N/A     30  27  86 CALM      29.82S
DENTON           N/A     28  26  91 NE13      29.70F WCI  18
FORT BENTON      N/A     28  25  86 MISG      29.78S
GEYSER           N/A     31  26  79 E7        29.71S WCI  25
GRASS RANGE    MOCLDY    28  25  88 E3        29.72F
JUDITH GAP       N/A     35  19  52 S8        29.69F WCI  28
ROY            CLOUDY    25  25  97 MISG      29.75F FOG
STANFORD         N/A     31  26  82 NE8       29.70F WCI  24
WINIFRED       MOCLDY    26  26 100 E13       29.73F FOG     WCI  15
$$

MTZ017>020-022>027-061-062-230000-
NORTHEAST MONTANA

CITY           SKY/WX    TMP DP  RH WIND       PRES   REMARKS
GLASGOW        CLOUDY    31  25  78 W8        29.81R WCI  23
JORDAN           N/A     30  25  81 N6        29.82S WCI  24
SIDNEY         CLOUDY    31  25  78 W10       29.84R WCI  22
WOLF POINT     CLOUDY    32  25  75 W7        29.83R WCI  26
PLENTYWOOD       N/A    N/A N/A N/A NW15      29.78S
POPLAR           N/A     28  21  74 W5        29.83S
SCOBEY           N/A     27  17  65 W7        29.78S WCI  20
$$

MTZ028>42-056>058-230000-
SOUTHCENTRAL AND SOUTHEAST MONTANA

CITY           SKY/WX    TMP DP  RH WIND       PRES   REMARKS
BAKER          CLOUDY    23  21  92 W9        29.84S FOG     WCI  13
BILLINGS       PTCLDY    36  22  56 SW3       29.75F
LIVINGSTON     CLOUDY    39  17  41 S12       29.69S WCI  32
MILES CITY     CLOUDY    25  21  85 SE5       29.85S
BIG TIMBER     PTCLDY    34  16  47 SE12      29.73F WCI  25
EKALAKA          N/A     26  18  72 W3        29.81S
FORSYTH          N/A     23  18  80 E5        29.83F
HARLOWTON        N/A     37  19  48 SE10      29.70F WCI  29
LAUREL           N/A     37  21  52 CALM      29.76F
$$

REGIONAL REPORTS...DAKOTAS

CITY           SKY/WX    TMP DP  RH WIND       PRES   REMARKS
WILLISTON      CLOUDY    30  25  81 W9        29.81R WCI  22
MINOT          CLOUDY    32  29  88 W10       29.76R WCI  24
DICKINSON      CLOUDY    27  23  85 NW18      29.79R WCI  14
BEACH          CLOUDY    27  27 100 W12G18    29.85S WCI  16
CROSBY         CLOUDY    28  28 100 NW16G23   29.80R WCI  17
TIOGA          CLOUDY    28  28 100 W13       29.79R WCI  18
WATFORD CITY   CLOUDY    28  27  93 W10       29.82R WCI  19
BISMARCK       CLOUDY    32  28  85 W13       29.82R WCI  22
GRAND FORKS    CLOUDY    33  28  81 W5        29.75R
FARGO          CLOUDY    35  31  85 W7        29.76S WCI  29
BUFFALO SD       N/A     28  23  81 NW8       29.76S WCI  20
RAPID CITY     CLEAR     38  24  57 S3        29.83F
$$

REGIONAL REPORTS...WYOMING/IDAHO/WASHINGTON

CITY           SKY/WX    TMP DP  RH WIND       PRES   REMARKS
GILLETTE       CLEAR     39  23  52 S8        29.79F
SHERIDAN       CLEAR     36  23  59 SE15      29.77F WCI  27
BUFFALO WY     CLEAR     35  22  58 CALM      29.77F
CODY           CLOUDY    32  21  64 SE14      29.75S WCI  22
YELLOWSTONE LA   N/A     22  15  75 VRB7      29.75R WCI  13
IDAHO FALLS    LGT SNOW  30  28  92 S9G21     29.77F VSB 1   WCI  22
SALMON         CLOUDY    19  16  86 CALM      29.68F
BOISE          CLOUDY    40  30  67 SE12      29.61S
SPOKANE        LGT RAIN  38  31  76 SE12      29.57R WCI  30
$$

REGIONAL REPORTS...ALBERTA

CITY           SKY/WX    TMP DP  RH WIND       PRES   REMARKS
EDMONTON       CLOUDY    16  10  79 NE2       29.91R
CALGARY        CLOUDY    21  19  93 E8        29.78S FOG     WCI  12
LETHBRIDGE     CLOUDY    25  25 100 NE8       29.79F FOG     WCI  16
MEDICINE HAT   LGT SNOW  25  23  93 NW7       29.83S FOG     WCI  17
WATERTON GATE    N/A     25  23  93 NE7         N/A  WCI  17
CARDSTON         N/A     25  23  93 NE5         N/A
MILK RIVER       N/A     27  25  93 E6          N/A  WCI  20
ONEFOUR          N/A     27  27 100 NW5         N/A
$$

REGIONAL REPORTS...SASKATCHEWAN

CITY           SKY/WX    TMP DP  RH WIND       PRES   REMARKS
SWIFT CURRENT  CLOUDY    21  21 100 NW12      29.76S FOG     WCI   9
REGINA         FLURRIES  25  21  86 NW15      29.76R WCI  12
SASKATOON      FLURRIES  19  16  86 NW8       29.83R WCI   9
CYPRESS HILLS    N/A     23  19  86 NW2         N/A
VAL MARIE        N/A     30  27  86 N3          N/A
ROCKGLEN         N/A     25  23  93 NW8         N/A  WCI  16
ASSINIBOIA       N/A     19  18  93 N1          N/A
$$




USA.gov is the U.S. government's official web portal to all federal, state and local government web resources and services.